Theta_e
333 339 337 338 337 337 338 337 335 335 333 333 331 334 333 333 332 333 334 334 333 333 332 331 328 323 317 313 310 310 310 311
334 337 337 337 336 335 336 336 335 335 334 332 331 333 333 332 332 331 332 333 330 333 331 327 324 324 317 313 310 310 310 310
332 336 336 336 335 334 335 335 335 334 333 332 331 330 330 330 330 329 329 330 328 333 329 327 324 323 319 312 311 311 310 310
337 336 335 336 334 334 336 334 334 334 333 332 331 329 325 324 324 324 323 326 324 330 329 328 325 323 317 313 311 311 310 310
336 335 336 336 334 336 335 334 334 333 332 330 330 325 321 321 321 320 320 320 321 324 325 327 327 323 317 313 311 310 309 311
331 335 337 336 335 335 335 334 334 333 331 330 329 324 322 319 318 318 318 319 320 324 325 327 325 322 319 314 312 311 310 311
331 334 336 336 336 335 334 334 334 333 331 330 327 322 319 317 317 317 317 318 322 323 326 325 324 323 318 315 313 311 311 313
326 327 333 336 336 335 334 333 333 331 331 327 325 323 319 316 315 315 315 317 322 325 325 324 323 322 320 316 313 314 313 314
334 334 336 336 335 335 334 333 332 331 331 326 324 323 317 316 314 313 314 316 320 324 325 324 324 322 319 317 315 315 317 317
336 334 335 336 335 334 334 332 331 332 328 326 326 318 317 315 314 313 313 315 318 322 325 324 324 321 319 318 317 317 317 318
331 332 330 333 333 334 333 332 331 332 329 327 326 318 317 316 315 314 313 313 314 317 321 323 323 322 322 321 319 320 320 319
330 327 327 332 329 333 333 331 330 330 329 328 322 318 317 316 317 315 314 313 313 314 314 315 317 320 320 320 319 318 319 318
331 330 333 333 334 334 332 331 330 329 328 326 322 318 316 316 319 316 314 313 313 313 313 313 312 312 312 313 314 315 315 314
324 324 327 329 334 334 332 331 329 329 327 325 321 318 317 317 317 315 313 312 312 312 311 311 311 311 311 311 311 312 311 307
323 323 326 331 333 334 332 331 329 329 328 325 322 319 318 318 317 314 312 311 311 310 310 309 309 309 309 308 308 308 306 305
329 328 328 330 333 333 332 332 330 329 327 324 321 319 319 318 316 313 312 311 310 310 309 308 308 308 307 307 306 305 304 303
329 333 332 330 331 331 332 332 330 329 327 324 320 319 318 317 314 313 311 310 310 310 308 308 307 307 307 306 305 304 304 302
321 324 329 328 329 331 331 331 330 328 327 323 319 318 318 317 314 312 311 310 310 309 308 308 307 307 307 305 304 304 302 302
319 320 320 328 328 329 330 330 329 328 324 321 319 318 317 316 314 312 311 310 309 309 308 307 306 306 306 305 304 303 302 302
Wind_Speed
28 33 36 36 42 45 40 33 32 28 29 25 26 18 31 27 22 24 22 22 18 20 25 27 26 29 29 26 28 26 27 26
17 28 31 36 39 44 41 38 35 32 29 33 30 27 25 23 21 20 22 23 15 25 26 27 31 25 29 29 30 29 27 26
12 24 30 36 39 42 40 41 41 34 31 34 31 28 23 24 24 20 21 23 17 30 28 29 30 25 27 30 31 28 30 25
16 24 30 35 37 39 39 44 41 36 33 33 29 25 24 24 23 22 20 22 21 27 26 26 29 30 33 32 31 30 30 19
12 19 26 34 37 36 42 46 42 38 36 35 34 25 29 27 25 23 21 21 21 21 23 21 31 33 34 31 29 26 26 24
18 10 31 36 34 35 41 44 42 39 38 37 38 35 30 28 26 24 24 22 18 24 22 24 31 31 29 30 26 23 24 20
22 35 25 33 36 35 39 41 43 39 38 39 40 37 31 31 29 28 26 23 24 22 25 26 26 25 27 28 25 22 20 17
22 23 20 31 33 34 36 38 40 40 31 41 38 33 35 35 36 32 30 28 27 23 27 26 25 21 23 26 26 22 21 17
25 25 31 30 39 39 36 36 38 36 32 41 36 35 37 36 35 33 33 32 30 26 26 24 22 21 23 25 25 22 15 13
24 23 28 28 31 41 41 38 39 34 36 39 33 40 37 35 32 31 31 30 30 29 27 27 22 26 27 26 25 22 19 14
22 21 25 26 26 36 41 40 39 36 37 38 33 40 36 33 32 32 31 30 30 29 28 28 25 27 26 27 24 21 22 19
21 18 29 26 34 29 36 36 33 35 36 39 37 38 35 34 33 33 31 31 28 28 28 28 28 27 26 25 25 22 23 21
19 19 26 28 24 31 32 35 35 36 35 40 41 38 35 36 34 34 33 33 29 29 29 27 26 26 26 26 26 25 23 22
16 14 16 20 25 31 36 35 37 36 39 34 39 38 37 39 37 35 34 31 29 29 28 28 28 27 27 24 24 24 24 24
19 15 15 18 25 33 34 34 40 39 38 39 41 40 41 41 38 36 34 31 31 30 29 29 28 28 26 25 25 25 24 23
22 19 20 30 30 28 32 34 37 43 39 38 40 39 42 41 38 36 34 32 32 32 31 29 28 29 28 28 28 27 26 24
5 14 20 23 31 31 30 30 34 38 37 39 40 42 42 41 38 37 35 34 34 33 33 32 32 31 29 28 29 28 27 27
15 9 12 21 29 35 33 33 36 36 36 33 36 38 38 40 39 38 37 37 35 35 34 34 34 32 30 30 29 29 29 30
12 8 15 11 26 32 28 34 31 32 32 33 38 37 35 39 40 39 40 39 39 38 36 35 34 31 29 31 30 29 29 28
Wind_Direction
246 185 184 169 167 167 164 169 173 163 160 153 152 141 153 153 153 154 159 155 166 167 162 160 160 153 153 147 142 140 138 136
222 176 182 163 165 168 167 168 172 163 159 154 156 141 148 151 157 162 166 169 163 174 162 159 157 159 157 153 150 147 144 143
177 194 174 166 165 166 169 168 170 168 163 161 160 151 149 154 154 159 170 174 158 169 163 165 163 166 167 160 158 152 150 158
172 176 169 171 167 168 168 168 171 169 166 160 160 153 151 149 151 159 170 176 165 169 167 168 171 169 164 161 164 161 158 168
156 169 168 174 168 171 164 167 169 170 165 163 167 161 152 164 164 163 169 173 170 171 177 180 179 171 167 172 176 178 174 178
150 197 175 172 164 166 162 167 170 174 170 174 175 168 167 163 164 165 163 171 170 171 179 174 169 171 174 174 175 182 177 187
156 171 203 169 163 161 164 167 171 173 174 176 173 166 164 164 164 166 166 172 168 171 170 171 172 175 180 178 179 179 183 190
162 172 198 171 161 163 168 170 171 174 174 171 169 171 173 173 169 168 168 171 173 166 165 166 173 179 185 182 184 186 195 204
174 175 184 178 170 165 170 171 175 176 174 170 170 176 175 175 173 173 175 175 173 172 173 171 178 185 182 184 190 193 189 181
164 174 177 175 175 166 172 170 176 177 177 174 169 172 177 175 176 177 176 178 177 175 175 177 171 181 182 188 193 196 200 190
170 172 160 186 194 180 171 171 174 176 173 177 172 176 179 178 177 177 178 179 181 181 183 185 181 175 182 185 189 192 194 193
169 172 168 173 217 172 170 169 172 175 173 176 175 177 180 177 177 180 181 182 181 183 182 186 190 190 189 186 189 189 190 185
153 146 147 161 198 166 170 167 168 171 170 173 177 178 179 179 182 180 183 180 181 183 184 188 187 187 188 188 190 194 195 187
157 157 161 158 174 176 169 166 169 169 171 175 176 180 180 181 177 178 181 180 181 183 184 184 184 185 186 189 193 189 186 181
151 161 163 162 180 176 174 168 166 173 170 177 178 182 184 180 179 181 182 184 182 182 184 185 185 185 186 184 185 185 183 183
167 175 156 181 193 186 177 176 172 172 171 172 177 182 185 181 182 182 184 185 184 183 182 185 186 187 187 185 187 186 183 181
342 193 171 171 176 181 181 175 176 172 170 176 177 181 182 182 181 182 184 185 184 185 186 186 188 190 191 189 191 186 186 181
27 9 197 177 180 176 177 176 174 176 174 176 176 176 175 182 183 184 185 186 186 188 188 190 192 193 192 191 195 191 191 189
16 9 15 231 187 185 176 174 174 175 170 170 174 177 174 178 182 185 187 188 189 189 192 193 194 194 194 194 194 195 198 197